Lid_Strength_Index
0 0 0 0 1 2 2 3 3 3 5 6 5 5 3 3 4 4 4 5 5 5 5 6 7 7 8 7 7 6 7 6 5 4 3 2 2 2 2 2 2 2 4
1 0 0 2 3 4 3 2 2 3 3 4 5 5 4 4 5 6 6 6 7 5 6 5 5 4 5 7 7 8 8 7 6 6 3 3 3 2 3 3 3 3 3
0 1 2 3 3 2 2 2 2 2 3 4 4 4 5 5 5 6 7 7 7 6 6 6 6 5 6 5 6 6 7 7 8 6 5 4 4 4 4 4 4 3 4
1 1 1 1 2 2 2 2 3 3 4 4 4 4 5 5 6 6 6 7 8 8 7 5 6 6 6 6 7 6 6 7 7 6 6 5 5 5 5 6 6 5 5
1 1 2 1 1 2 2 3 3 4 4 5 5 5 5 5 6 6 5 6 5 5 5 5 5 5 5 5 6 6 6 6 6 6 7 6 7 7 8 7 8 7 6
1 2 2 4 3 3 3 3 4 4 4 3 4 5 6 6 6 6 5 6 6 5 5 5 5 4 5 7 7 7 7 6 7 8 8 9 8 8 7 8 8 8 8
2 4 5 4 3 4 3 3 4 4 3 3 4 4 5 5 6 6 6 6 6 5 5 5 5 6 6 5 7 7 7 7 7 6 7 7 7 7 6 7 6 5 5
3 4 4 3 4 3 3 4 4 3 3 3 4 4 4 5 6 6 6 4 5 5 5 5 5 5 6 5 5 5 5 5 5 4 4 5 4 4 3 3 4 3 3
4 4 4 4 3 3 4 5 4 4 3 4 3 3 4 4 6 6 5 3 3 3 3 3 3 3 6 6 4 4 3 4 5 5 5 6 6 6 5 4 4 4 4
4 4 4 2 3 4 4 4 4 4 5 4 4 4 4 3 7 7 6 3 3 4 3 3 5 5 6 6 3 3 4 4 3 5 3 5 5 5 5 2 3 5 5
3 4 3 3 3 3 3 3 3 4 5 5 6 5 5 5 5 7 7 4 5 4 4 3 3 6 6 6 5 4 5 4 4 4 4 3 3 3 3 3 3 4 5
3 4 3 3 2 3 3 3 3 4 5 6 5 6 5 5 6 6 7 6 5 3 4 3 4 7 7 6 5 7 6 5 4 5 5 5 5 5 4 4 4 4 4
4 4 3 3 3 3 3 4 4 5 6 6 6 6 5 4 3 5 6 6 5 3 3 5 6 6 7 6 6 6 5 4 5 5 6 6 5 5 4 4 3 3 4
4 4 3 3 3 2 3 3 4 5 6 6 7 7 6 5 4 3 3 2 4 4 4 4 5 6 6 5 4 4 4 4 5 5 6 5 4 5 5 4 5 6 8
3 3 3 3 3 3 3 4 4 4 7 6 7 6 7 7 6 8 7 4 5 6 5 5 5 5 6 6 6 5 4 4 5 5 5 5 5 5 5 5 6 7 8
4 3 4 4 3 4 4 3 8 8 9 10 10 8 4 8 10 10 9 9 9 9 4 5 6 7 7 7 6 6 5 5 5 5 5 5 6 6 6 6 7 7 8
3 3 4 4 4 4 3 3 4 6 7 9 9 9 9 10 9 9 10 10 9 8 5 6 5 4 7 7 7 6 5 5 4 5 6 6 5 6 6 7 7 7 7
3 6 4 3 4 3 3 2 3 3 3 3 7 7 8 8 9 8 9 6 5 5 6 6 6 5 4 6 6 6 6 5 5 5 5 6 6 6 7 7 7 7 7
3 4 3 3 3 3 2 2 2 2 4 3 4 6 6 8 8 8 7 4 5 5 4 5 5 5 5 5 5 6 6 5 6 5 5 5 5 5 6 6 8 10 9
4 6 5 3 4 3 3 2 2 3 3 3 4 4 4 5 5 4 4 4 5 5 5 5 4 4 3 4 5 5 5 5 5 5 4 4 4 5 6 6 7 7 7
3 3 8 3 3 3 3 3 2 2 2 5 5 5 13 4 4 4 5 5 6 6 5 5 5 4 4 4 4 5 4 6 6 5 5 3 2 4 4 5 5 6 6
3 3 4 3 3 3 3 3 3 3 3 3 4 4 10 4 5 5 5 5 5 5 5 5 5 5 5 4 4 5 5 5 5 5 4 3 2 3 4 4 5 6 6
4 5 4 4 4 6 2 3 4 4 4 4 5 5 5 5 5 5 5 5 4 4 4 4 5 5 5 5 5 4 6 6 6 5 4 3 3 4 4 4 5 6 6
4 5 4 4 4 4 4 3 3 7 5 5 5 5 5 5 5 4 4 5 4 4 4 4 4 4 4 4 5 6 7 8 7 4 3 3 3 3 2 4 3 4 3
4 4 5 5 5 5 5 4 4 4 4 4 4 4 5 4 4 4 4 3 4 4 4 3 3 4 4 4 5 6 11 14 11 12 5 3 2 2 3 4 4 4 4
4 4 4 5 5 5 5 5 5 4 4 4 4 5 4 4 4 4 4 4 4 4 4 4 4 4 4 4 6 11 12 13 12 14 9 4 1 2 2 2 3 3 4